ONEWEB-0062 (45163 NORAD) Tracking and Keplerian Element Data

This shows tracking and keplerian element data for the satellite.

Feedback or suggestion? Click here.




ElementValue
Catalog45163
NameONEWEB-0062
Epoch Orbit928
Epoch Day94.11784961
Epoch Year2020
RAAN145.4534
Inclination87.4962
Eccentricity0.0019906
Argument of Perigee84.3332
Mean Anonmoly276.0159
Mean Motion14.78735817
Decay Rate-0.00359913
L11 45163U 20008AJ 20094.11784961 -.00359913 00000-0 -51534-1 0 9992
L22 45163 87.4962 145.4534 0019906 84.3332 276.0159 14.78735817 9281

Live tracking and technical data element details for ONEWEB-0062 (NORAD 45163). ONEWEB-0062 can be tracked NOW for your location showing map with azimuth and elevation plus other details from your city location.

Track the satellite on the map from your city or location and see movement details for azimuth, elevation, latitude, longitude, range, height, and movement on the map or in text.







IsCatalogInMostPopularTable: catalog: 45163, numindb: 9
Update: records affected: 1



GetName: 45163 ONEWEB-0062

Hit Count: updated at: Mon, 06 Apr 2020 11:47:58 GMT